Temp
8 8 8 7 6 7 8 8 6 7 7 8 8 8 8 8 8 7 8 7 7 7 6 6 5 4 4 3 2 2 1 1 0 -1 -2 -2 -3 -3 -3 -3 -4 -5 -5 -4
7 8 8 7 7 8 8 8 8 8 7 9 8 8 8 7 7 8 7 7 7 6 5 5 4 4 3 2 1 1 1 1 -2 -2 -2 -2 -3 -3 -4 -4 -4 -4 -4 -5
8 8 7 6 7 8 9 9 9 7 7 8 7 8 8 8 8 7 6 6 6 5 4 4 3 3 2 1 1 0 0 0 -2 -3 -2 -2 -2 -3 -3 -4 -4 -5 -5 -5
5 7 4 6 8 9 7 8 8 7 7 7 8 7 6 6 6 5 5 5 4 3 3 2 2 2 1 0 -0 0 0 -1 -2 -3 -3 -3 -3 -3 -3 -4 -4 -5 -5 -5
4 3 5 8 10 9 9 7 8 7 6 7 7 6 3 3 3 3 2 2 2 2 2 1 1 0 -0 -0 -1 -1 -1 -2 -2 -3 -3 -3 -4 -3 -4 -5 -4 -5 -6 -6
3 7 3 5 9 11 9 6 9 9 7 7 7 3 2 2 2 2 3 2 1 0 -1 -1 -0 -1 -1 -1 -1 -2 -2 -2 -2 -3 -3 -3 -3 -3 -4 -4 -4 -5 -6 -7
1 4 4 8 10 10 8 5 8 9 8 7 3 3 2 2 2 1 0 -0 -1 -2 -2 -2 -2 -2 -2 -1 -2 -3 -3 -2 -3 -3 -3 -3 -3 -3 -4 -4 -4 -5 -5 -5
3 4 4 9 10 9 7 8 8 6 5 4 3 3 3 0 1 -0 -0 -0 -1 -2 -2 -2 -2 -2 -2 -2 -2 -3 -2 -2 -3 -4 -4 -3 -3 -3 -4 -4 -4 -4 -5 -4
5 5 8 9 9 9 9 7 5 6 5 6 4 2 0 0 0 -0 -1 -1 -3 -3 -3 -3 -3 -3 -3 -3 -2 -3 -3 -3 -4 -3 -3 -3 -3 -4 -5 -5 -4 -4 -4 -5
6 8 8 9 8 8 8 7 7 6 4 3 1 1 1 0 0 -0 -0 -1 -2 -4 -4 -3 -3 -3 -3 -3 -3 -3 -3 -4 -4 -3 -3 -4 -5 -5 -6 -6 -5 -4 -4 -5
5 7 7 6 7 7 6 6 5 4 3 3 2 1 1 0 -0 -1 -1 -1 -1 -3 -5 -4 -4 -4 -3 -4 -3 -3 -3 -3 -3 -4 -4 -4 -5 -5 -6 -6 -6 -6 -5 -5
4 8 7 5 6 7 6 4 4 3 2 2 2 1 1 -0 -1 -1 -1 -2 -2 -2 -5 -5 -4 -4 -4 -4 -4 -3 -3 -3 -4 -4 -4 -4 -4 -4 -5 -5 -6 -6 -5 -5
8 8 8 6 6 6 6 4 3 3 2 2 1 1 1 -0 -1 -1 -2 -2 -2 -2 -5 -4 -4 -5 -5 -5 -4 -3 -3 -3 -4 -4 -5 -5 -5 -4 -4 -4 -5 -5 -5 -5
9 8 6 7 5 5 5 4 3 2 2 2 1 1 0 -0 -1 -1 -2 -2 -2 -2 -2 -2 -4 -5 -5 -4 -3 -2 -2 -2 -3 -4 -4 -5 -5 -6 -5 -6 -5 -5 -5 -5
8 9 8 6 5 4 4 4 3 2 2 1 1 1 1 -0 -1 -1 -2 -2 -2 -2 -2 -2 -2 -3 -3 -2 -2 -2 -2 -2 -3 -3 -3 -4 -4 -4 -5 -6 -6 -6 -4 -4
8 8 7 6 5 5 4 4 3 2 2 1 1 1 1 0 -0 -1 -1 -1 -0 -1 -1 -1 -1 -2 -2 -1 -1 -1 -2 -2 -2 -2 -2 -2 -3 -3 -4 -4 -5 -6 -7 -7
7 5 5 5 5 4 5 4 4 3 2 2 1 1 1 1 0 -0 -0 -0 -0 0 -0 -0 -1 -1 -1 -1 -1 -1 -2 -2 -2 -2 -2 -3 -3 -3 -3 -4 -4 -5 -6 -6
10 8 8 7 6 5 5 5 5 4 3 2 2 2 2 2 1 1 1 1 1 1 1 1 1 0 1 1 1 0 0 -0 -1 -1 -2 -2 -2 -3 -4 -4 -4 -4 -5 -5
9 8 7 7 6 6 5 5 5 5 4 3 3 3 2 2 2 2 2 3 2 2 1 1 1 1 1 1 1 1 1 1 0 0 -0 -1 -1 -2 -3 -3 -3 -4 -4 -4
8 8 7 7 6 7 6 5 5 4 4 4 4 4 3 3 3 3 3 4 3 2 2 2 2 2 2 2 2 1 1 1 1 1 1 0 -0 -1 -1 -2 -2 -3 -3 -3
8 7 7 7 6 6 6 6 5 5 4 4 5 5 5 4 4 4 4 4 3 3 3 3 3 3 2 2 2 2 2 2 1 1 1 0 0 -0 -0 -1 -1 -1 -2 -2
8 7 7 7 6 6 6 6 5 5 5 5 5 5 5 5 4 5 4 4 4 4 4 4 4 4 3 3 2 2 2 2 1 1 1 0 0 -0 -0 -1 -1 -1 -2 -2
8 7 7 7 7 7 6 6 6 6 6 6 6 6 5 5 5 5 5 5 4 4 4 4 4 3 3 3 2 2 2 2 1 1 0 0 -0 -0 -1 -1 -1 -1 -2 -2
8 7 7 7 7 7 7 6 6 6 6 6 5 5 5 6 5 5 5 5 5 5 5 4 4 4 3 3 3 2 2 2 1 1 1 0 -0 -0 -0 -1 -1 -1 -2 -2
8 7 7 7 7 8 7 7 6 5 6 6 5 5 5 5 5 6 6 5 5 5 5 4 4 4 3 3 3 3 2 2 2 1 1 0 -0 -0 -1 -1 -1 -2 -2 -2
8 8 8 8 8 8 8 7 7 6 6 6 6 6 6 6 6 6 6 6 5 5 5 5 4 4 4 4 3 3 3 2 2 1 1 1 0 -0 -1 -1 -1 -2 -2 -2
7 8 8 7 7 8 8 8 8 7 7 7 7 6 6 6 6 6 6 6 5 5 5 5 5 4 4 4 4 3 3 3 2 2 1 1 0 -0 -1 -1 -2 -2 -2 -2
Height
1528 1526 1529 1530 1529 1525 1523 1523 1530 1531 1530 1528 1526 1528 1529 1531 1532 1532 1531 1530 1527 1525 1524 1521 1520 1518 1516 1513 1510 1506 1501 1496 1490 1487 1484 1480 1476 1472 1466 1460 1453 1447 1443 1439
1534 1530 1532 1532 1530 1527 1526 1525 1528 1527 1531 1529 1531 1532 1532 1533 1533 1531 1530 1530 1527 1525 1523 1521 1519 1517 1515 1512 1508 1504 1499 1494 1490 1486 1483 1478 1474 1469 1464 1458 1451 1445 1441 1437
1534 1534 1534 1543 1534 1529 1526 1525 1526 1531 1531 1530 1531 1531 1533 1533 1530 1529 1527 1527 1525 1524 1522 1520 1518 1516 1513 1510 1507 1503 1498 1492 1488 1484 1481 1476 1471 1465 1461 1456 1449 1443 1439 1434
1544 1541 1560 1535 1528 1527 1529 1529 1528 1529 1529 1529 1529 1532 1531 1530 1529 1528 1527 1526 1526 1525 1522 1520 1518 1514 1511 1509 1505 1501 1496 1491 1487 1483 1479 1474 1469 1464 1459 1454 1447 1442 1436 1431
1550 1560 1546 1530 1526 1528 1527 1533 1530 1530 1530 1530 1531 1531 1534 1534 1532 1531 1530 1528 1526 1524 1521 1518 1515 1512 1510 1507 1504 1499 1495 1490 1486 1481 1477 1473 1469 1463 1457 1453 1446 1440 1435 1429
1550 1541 1562 1535 1524 1523 1525 1537 1529 1529 1530 1530 1531 1536 1538 1537 1535 1533 1532 1529 1526 1523 1520 1517 1513 1511 1508 1505 1503 1499 1494 1490 1485 1480 1476 1472 1468 1462 1457 1452 1446 1440 1434 1429
1558 1547 1542 1525 1523 1524 1534 1543 1530 1529 1529 1530 1533 1536 1539 1538 1536 1534 1531 1528 1525 1523 1520 1517 1514 1511 1508 1506 1502 1499 1495 1490 1485 1479 1474 1471 1466 1461 1456 1451 1445 1440 1435 1430
1548 1548 1549 1523 1524 1528 1533 1531 1531 1532 1533 1533 1536 1538 1538 1538 1536 1534 1532 1528 1525 1522 1521 1518 1515 1511 1508 1505 1503 1499 1495 1491 1484 1479 1474 1470 1465 1459 1454 1449 1445 1440 1435 1431
1538 1538 1527 1525 1527 1529 1530 1532 1535 1535 1537 1536 1537 1539 1539 1539 1537 1535 1532 1529 1526 1524 1521 1519 1516 1513 1509 1506 1502 1499 1494 1490 1485 1480 1475 1470 1464 1459 1454 1449 1445 1441 1437 1433
1531 1531 1529 1528 1530 1532 1533 1535 1537 1538 1538 1539 1540 1540 1541 1540 1538 1536 1533 1530 1527 1525 1522 1520 1518 1515 1511 1507 1503 1499 1494 1490 1486 1481 1477 1472 1467 1462 1457 1451 1446 1442 1439 1435
1532 1532 1532 1535 1535 1535 1537 1539 1540 1541 1542 1542 1541 1542 1542 1541 1539 1537 1534 1532 1529 1526 1524 1521 1518 1516 1513 1509 1505 1500 1496 1491 1487 1483 1479 1475 1470 1465 1460 1456 1451 1445 1441 1438
1533 1529 1529 1538 1539 1540 1540 1542 1543 1543 1544 1545 1545 1544 1543 1542 1541 1539 1536 1533 1530 1528 1525 1523 1520 1517 1514 1511 1507 1503 1498 1494 1490 1486 1482 1477 1473 1469 1465 1459 1454 1449 1444 1440
1524 1529 1532 1538 1542 1543 1542 1544 1545 1546 1547 1546 1547 1546 1545 1544 1543 1541 1537 1535 1532 1529 1528 1524 1522 1519 1516 1512 1508 1505 1501 1497 1493 1488 1484 1480 1475 1470 1466 1463 1458 1452 1447 1441
1523 1529 1538 1541 1543 1545 1545 1547 1548 1549 1549 1549 1549 1548 1546 1545 1544 1542 1539 1537 1535 1532 1529 1526 1523 1520 1518 1514 1511 1507 1503 1500 1495 1491 1487 1483 1479 1474 1470 1464 1459 1454 1450 1445
1529 1532 1535 1540 1544 1547 1548 1549 1550 1551 1552 1551 1551 1550 1549 1547 1546 1544 1542 1539 1537 1534 1531 1528 1525 1522 1520 1516 1513 1509 1506 1502 1499 1495 1491 1487 1482 1478 1473 1469 1464 1459 1454 1450
1531 1535 1539 1542 1546 1548 1550 1552 1551 1552 1553 1553 1553 1552 1551 1549 1548 1546 1544 1542 1539 1535 1533 1530 1527 1525 1522 1519 1516 1513 1509 1506 1502 1498 1494 1490 1485 1481 1477 1472 1468 1463 1458 1454
1532 1538 1541 1544 1546 1549 1552 1553 1553 1553 1554 1555 1555 1554 1553 1552 1550 1549 1546 1544 1541 1538 1536 1533 1531 1529 1526 1523 1519 1516 1513 1510 1506 1502 1498 1494 1490 1485 1481 1476 1472 1467 1463 1459
1530 1534 1539 1542 1545 1548 1552 1554 1555 1555 1556 1557 1557 1557 1556 1555 1553 1551 1549 1547 1545 1542 1540 1538 1535 1533 1530 1527 1524 1521 1517 1514 1510 1506 1502 1498 1494 1490 1486 1481 1477 1472 1468 1464
1532 1536 1540 1544 1547 1550 1552 1555 1556 1558 1559 1559 1559 1559 1558 1556 1555 1554 1553 1552 1549 1547 1544 1542 1540 1538 1535 1532 1529 1526 1522 1519 1515 1511 1507 1502 1498 1494 1489 1485 1480 1476 1471 1466
1533 1537 1540 1544 1547 1550 1553 1556 1558 1560 1561 1561 1561 1561 1560 1559 1558 1558 1558 1556 1553 1550 1548 1548 1546 1544 1540 1537 1534 1531 1528 1524 1520 1516 1511 1507 1503 1498 1493 1488 1484 1479 1474 1469
1531 1535 1539 1543 1548 1552 1556 1557 1559 1560 1562 1563 1563 1562 1563 1563 1562 1563 1562 1560 1557 1554 1553 1552 1551 1548 1545 1542 1539 1536 1532 1528 1524 1520 1516 1512 1507 1503 1498 1493 1488 1483 1477 1472
1529 1534 1539 1544 1549 1553 1556 1558 1560 1561 1563 1564 1564 1565 1565 1565 1565 1565 1564 1563 1560 1558 1557 1556 1554 1550 1548 1545 1543 1540 1536 1532 1528 1524 1520 1515 1510 1506 1501 1496 1491 1485 1480 1475
1527 1533 1539 1545 1549 1552 1554 1557 1559 1561 1563 1564 1565 1566 1567 1568 1568 1567 1566 1565 1563 1562 1560 1558 1556 1554 1551 1549 1546 1542 1539 1535 1531 1527 1522 1518 1513 1508 1503 1498 1493 1488 1482 1477
1526 1533 1539 1544 1548 1551 1553 1556 1559 1562 1565 1566 1567 1569 1570 1569 1569 1568 1567 1566 1565 1563 1562 1561 1558 1555 1553 1550 1548 1544 1540 1536 1532 1528 1524 1520 1515 1510 1505 1500 1495 1489 1484 1478
1525 1531 1537 1541 1545 1549 1553 1556 1558 1561 1564 1566 1567 1568 1569 1570 1570 1569 1568 1568 1567 1565 1563 1561 1559 1556 1554 1551 1548 1545 1542 1538 1534 1529 1524 1520 1515 1511 1506 1500 1495 1489 1483 1478
1522 1528 1534 1539 1543 1547 1551 1554 1556 1559 1562 1563 1565 1567 1568 1569 1569 1570 1569 1568 1567 1565 1563 1562 1559 1557 1555 1552 1549 1546 1542 1538 1534 1529 1525 1520 1515 1510 1505 1499 1494 1488 1482 1476
1522 1527 1532 1538 1542 1545 1548 1551 1554 1556 1560 1562 1565 1566 1567 1568 1569 1569 1569 1568 1567 1565 1563 1561 1559 1557 1555 1552 1549 1546 1542 1538 1534 1529 1524 1519 1514 1509 1504 1498 1493 1487 1481 1475
Wind_Speed
5 7 7 3 3 6 3 4 3 4 8 5 7 8 12 10 8 6 2 3 6 4 4 5 8 10 12 11 13 19 24 27 23 14 17 19 22 23 27 32 28 23 17 18
5 5 6 6 8 6 6 7 7 9 7 10 13 15 10 8 3 1 3 5 6 4 3 4 6 9 10 8 12 18 24 26 20 16 17 19 22 25 26 29 27 20 17 18
1 3 4 5 3 4 3 3 3 2 4 5 5 10 5 2 1 2 6 5 4 1 2 5 8 7 6 8 13 18 22 23 19 19 17 19 23 21 24 28 25 22 22 21
3 2 1 6 4 0 6 4 5 6 6 9 9 8 10 8 8 9 8 7 4 4 6 8 10 9 8 11 13 19 21 24 20 18 17 20 24 25 21 26 24 24 24 21
3 2 4 6 3 5 3 2 1 3 4 7 7 14 16 12 11 10 8 6 6 8 11 12 12 11 9 8 13 21 21 25 21 19 18 20 23 26 27 24 24 23 24 21
2 2 5 5 4 6 4 1 3 4 6 9 3 2 2 6 7 7 7 7 8 10 12 16 16 11 10 10 15 19 24 26 20 21 18 18 21 23 23 23 24 25 20 18
1 2 5 5 3 4 1 4 4 2 8 9 5 6 8 5 6 5 7 8 8 11 14 16 17 12 13 14 14 16 22 23 23 21 18 15 20 22 20 23 18 22 21 21
2 2 4 1 4 1 4 6 11 13 13 21 16 10 6 6 6 7 10 11 11 13 12 15 15 14 14 14 12 16 19 21 23 21 19 20 22 21 18 20 16 19 21 20
4 4 3 13 16 13 13 14 15 19 13 9 11 9 8 10 11 11 11 12 11 13 14 14 17 18 20 21 12 15 16 20 23 22 21 22 24 24 24 21 19 19 20 22
3 4 10 21 18 19 17 19 13 9 10 10 15 14 12 12 13 14 14 15 13 12 16 15 15 17 18 21 14 14 17 16 19 20 21 23 25 25 26 27 23 20 19 20
3 9 20 17 20 19 19 12 14 15 15 15 14 13 11 12 13 15 15 15 14 12 14 16 16 16 16 18 22 19 22 22 20 19 21 21 21 22 23 23 21 19 18 17
4 10 15 15 19 17 18 16 15 17 16 14 12 12 11 12 12 14 15 15 16 12 15 16 17 18 17 14 17 18 20 21 22 22 22 23 23 22 22 23 24 20 16 14
13 20 25 23 19 15 17 16 15 14 13 14 13 11 10 10 10 13 15 15 16 14 14 15 15 15 17 16 16 15 16 18 18 20 21 22 24 25 26 23 25 25 25 20
29 33 26 23 20 16 15 16 14 15 14 13 12 12 11 9 10 14 16 14 13 15 16 14 15 17 16 16 16 16 16 17 19 20 20 21 22 23 24 26 28 28 27 26
32 18 27 25 21 18 14 14 15 15 14 13 11 13 13 11 12 13 14 13 11 14 16 16 16 16 16 16 16 18 18 18 18 18 19 21 21 22 23 24 26 27 26 25
28 29 28 24 21 17 15 13 14 14 11 10 10 11 12 12 12 12 13 14 13 16 18 18 18 17 17 16 16 18 19 19 19 20 21 22 23 24 26 26 26 26 26 26
35 29 28 25 20 17 15 13 13 13 12 11 10 10 11 12 12 13 15 15 15 16 17 18 19 18 19 19 19 20 21 21 21 22 23 24 25 26 26 27 27 27 27 26
20 27 23 22 23 21 18 16 15 13 13 12 11 11 13 13 15 15 16 16 17 18 19 20 20 21 22 22 22 22 23 23 24 25 24 24 25 25 26 26 27 27 27 27
26 27 24 22 21 21 20 19 17 16 15 13 13 13 14 15 16 16 16 15 17 19 21 21 21 21 22 23 24 24 25 25 25 25 26 27 27 26 27 28 28 28 28 29
30 25 24 23 22 21 21 18 17 16 14 13 13 13 15 16 16 16 15 16 18 20 22 21 21 21 23 24 24 24 24 25 26 27 28 28 28 28 29 29 29 30 30 30
32 29 27 26 25 21 18 18 17 17 14 12 12 13 14 15 15 15 15 16 17 18 19 18 19 20 22 23 23 23 24 25 26 27 27 28 28 28 29 29 29 29 30 29
34 31 29 28 27 23 19 18 17 17 16 15 13 12 12 13 13 14 14 15 16 16 16 17 19 20 20 20 20 21 22 23 24 25 25 26 27 27 28 28 28 28 29 29
35 33 31 31 28 25 22 20 19 18 17 15 14 13 12 13 13 12 13 14 14 14 15 15 16 16 16 17 17 18 20 21 22 23 24 25 26 27 28 28 29 29 30 31
36 34 34 32 29 27 26 23 21 18 16 15 13 11 9 10 12 12 10 9 10 11 11 11 12 13 14 15 16 18 19 21 22 23 24 25 25 27 27 28 29 29 29 30
36 37 38 36 33 30 27 25 23 21 19 17 15 14 13 11 9 9 8 7 7 7 8 9 10 12 13 14 16 17 19 20 22 24 25 26 26 27 28 28 29 30 30 31
40 39 41 38 34 32 30 28 25 23 22 20 18 16 15 13 10 8 6 4 4 4 5 7 9 10 12 13 15 17 19 20 22 23 25 26 27 28 29 29 29 30 31 32
40 40 42 39 36 34 31 29 28 26 24 21 18 17 15 12 10 7 4 2 0 3 5 7 9 10 12 13 15 17 19 20 22 24 26 27 28 30 30 31 31 32 32 33
Wind_Direction
80 88 70 27 17 1 206 230 101 101 78 47 74 78 108 140 145 123 69 355 7 349 351 359 351 344 339 334 343 344 345 348 356 359 353 345 343 341 336 341 341 343 335 335
56 52 55 46 20 37 45 77 96 101 77 115 117 117 91 63 30 146 25 9 14 55 32 342 321 324 327 337 338 344 349 350 358 358 351 348 344 340 341 341 344 345 342 336
95 315 336 11 310 336 71 48 114 99 194 136 94 95 87 121 120 61 87 66 98 78 359 322 325 340 346 334 335 343 350 356 359 356 354 348 343 344 344 342 344 347 344 337
111 3 349 237 289 244 107 53 74 107 154 160 166 92 57 61 95 98 108 109 76 359 338 335 332 327 318 326 337 338 352 1 359 356 348 343 1 360 350 343 349 349 343 334
121 189 274 317 197 192 159 339 349 147 170 180 142 96 51 63 76 78 67 40 1 333 333 335 340 335 328 333 347 343 358 359 355 353 344 348 350 352 355 346 352 352 349 349
112 193 203 239 265 219 94 309 6 46 184 194 172 87 75 48 40 29 7 4 352 3 11 9 6 359 12 4 350 357 355 355 352 347 339 344 346 345 348 348 355 359 359 359
127 223 286 248 193 129 171 242 304 259 137 138 97 104 124 47 38 19 21 7 18 30 27 20 11 27 14 357 13 1 355 3 357 353 357 348 340 340 346 346 352 2 13 13
87 61 303 322 104 146 163 99 117 109 113 107 110 103 87 77 44 38 34 26 24 28 33 24 18 18 10 13 5 358 353 13 15 11 1 353 347 351 349 355 2 6 12 20
158 213 272 73 100 122 136 121 110 106 113 107 129 114 103 86 62 53 36 23 31 33 31 37 27 22 20 10 348 343 356 5 16 25 27 22 19 20 15 13 11 11 13 12
79 359 93 107 109 114 116 110 102 113 118 113 113 110 96 70 56 45 36 31 25 34 32 36 32 25 24 13 12 4 5 12 24 28 28 29 28 30 27 18 13 10 12 11
70 115 86 95 119 122 116 120 112 103 103 105 103 97 80 67 54 39 33 29 26 37 34 34 32 28 24 26 23 35 34 31 26 22 24 31 37 33 30 29 19 11 6 6
201 175 124 138 136 127 117 112 112 112 107 93 78 80 72 66 49 35 31 29 33 38 36 31 33 32 28 30 30 34 34 33 32 30 29 29 32 41 40 38 33 27 17 5
132 141 134 140 131 126 116 119 117 104 93 91 84 73 60 61 45 34 32 32 32 37 35 27 37 40 32 31 29 23 23 25 27 28 30 30 29 32 31 43 43 36 33 26
143 136 124 137 132 129 122 123 114 101 95 86 81 66 62 68 54 43 37 36 37 39 35 33 39 38 34 30 31 31 31 30 30 29 31 33 33 32 33 31 31 34 39 39
141 139 139 138 135 134 130 127 113 107 104 97 81 65 53 66 62 52 41 40 45 43 42 43 44 40 34 33 31 34 34 35 34 34 32 32 33 33 34 34 33 30 31 37
143 141 143 142 141 142 140 131 120 118 114 103 86 64 54 69 66 55 45 42 46 43 44 44 43 42 38 38 40 40 38 39 38 35 35 37 34 33 32 32 31 30 28 24
143 144 150 149 152 150 142 132 123 123 115 102 95 77 71 74 70 62 52 46 48 51 49 48 46 44 43 42 41 41 40 40 41 42 40 37 35 36 35 32 32 31 30 27
167 162 161 158 157 154 146 134 123 121 118 112 107 91 82 82 74 66 60 54 55 56 54 50 47 46 45 45 44 43 42 41 40 40 37 38 37 35 33 32 30 29 29 29
162 163 163 162 162 156 147 135 129 120 115 119 114 101 89 81 77 69 65 62 62 61 59 55 53 51 49 48 46 44 42 40 39 38 36 36 33 32 31 31 29 28 27 26
166 165 164 164 165 161 149 145 141 131 125 118 113 105 94 87 82 77 74 69 66 64 62 57 55 55 56 53 50 46 43 41 39 38 36 34 33 32 30 28 27 26 24 22
170 170 170 170 166 162 152 152 152 149 141 129 118 106 98 90 86 83 78 76 74 72 71 67 63 62 57 53 47 43 40 38 36 34 32 30 29 27 25 24 23 21 18 16
174 174 174 171 167 158 157 157 160 157 154 151 138 124 114 107 101 92 86 80 77 76 74 69 61 54 48 42 38 34 32 30 28 26 25 24 23 21 19 18 16 17 14 12
177 177 176 172 167 161 164 166 166 162 156 154 145 140 132 119 109 99 90 82 77 72 65 57 50 45 40 33 28 26 23 22 20 19 18 17 15 14 13 11 10 10 8 7
178 178 178 173 169 170 171 171 170 164 163 157 149 138 127 126 122 111 101 91 81 70 59 49 43 38 32 25 21 19 17 15 12 11 10 9 8 6 5 4 4 3 3 2
181 181 179 176 176 177 175 172 173 173 170 166 162 156 150 147 141 125 114 99 81 65 52 37 28 22 20 15 11 10 9 7 5 4 2 2 1 359 359 358 358 358 359 358
184 185 184 183 179 180 181 181 181 180 179 178 174 169 163 161 155 147 131 111 76 44 24 13 6 3 3 1 359 360 360 359 357 355 355 355 354 353 353 353 353 354 354 354
188 187 187 186 186 188 188 186 186 186 184 185 181 175 173 175 172 172 168 166 350 346 343 339 340 340 342 345 347 348 348 349 349 348 349 349 349 349 349 349 350 350 349 349